Total_Precipitation_Accumulation
1.88 2.44 2.99 3.47 4.04 4.65 5.03 4.82 4.05 3.33 2.68 2.18 1.69 1.42 1.28 1.10 0.94 0.88 0.80 0.73 0.65 0.59 0.53 0.45 0.45 0.40 0.40 0.43 0.45 0.53 0.61 0.64 0.71 0.81 0.80 0.70 0.65 0.64 0.63 0.61 0.62 0.66 0.79
1.86 2.53 3.06 3.24 3.16 3.24 3.28 2.76 2.38 2.02 1.61 1.39 1.13 0.90 0.79 0.65 0.56 0.53 0.50 0.43 0.44 0.46 0.42 0.41 0.39 0.36 0.37 0.36 0.39 0.45 0.49 0.52 0.57 0.66 0.68 0.63 0.61 0.60 0.49 0.55 0.55 0.58 0.76
1.94 2.39 2.51 2.41 2.28 2.21 2.01 1.67 1.47 1.44 1.23 1.08 0.87 0.68 0.60 0.51 0.41 0.37 0.36 0.33 0.30 0.31 0.33 0.35 0.37 0.36 0.32 0.32 0.34 0.35 0.38 0.40 0.42 0.50 0.58 0.59 0.57 0.52 0.46 0.46 0.48 0.56 0.65
1.92 1.86 1.46 1.27 1.37 1.41 1.33 1.39 1.36 1.26 1.08 0.98 0.75 0.53 0.42 0.37 0.31 0.30 0.29 0.29 0.25 0.22 0.22 0.25 0.30 0.31 0.32 0.32 0.25 0.26 0.32 0.34 0.31 0.34 0.42 0.41 0.46 0.52 0.51 0.45 0.47 0.54 0.54
1.00 0.76 0.62 0.64 0.83 1.01 1.15 1.38 1.39 1.18 0.98 0.89 0.81 0.75 0.61 0.53 0.41 0.34 0.32 0.29 0.27 0.24 0.20 0.19 0.23 0.28 0.34 0.39 0.35 0.33 0.31 0.30 0.27 0.28 0.35 0.36 0.31 0.37 0.46 0.47 0.45 0.46 0.39
0.42 0.40 0.45 0.58 0.74 0.88 0.94 1.04 1.10 1.16 1.09 1.01 0.89 0.88 0.79 0.69 0.55 0.44 0.37 0.35 0.33 0.33 0.30 0.28 0.31 0.35 0.34 0.35 0.37 0.40 0.39 0.37 0.34 0.27 0.29 0.43 0.40 0.30 0.36 0.38 0.42 0.41 0.29
0.24 0.35 0.41 0.50 0.54 0.63 0.64 0.67 0.68 0.78 0.84 0.87 0.87 0.87 0.81 0.72 0.61 0.48 0.38 0.37 0.32 0.30 0.31 0.30 0.36 0.39 0.38 0.35 0.33 0.34 0.39 0.46 0.46 0.36 0.28 0.31 0.42 0.37 0.31 0.31 0.31 0.34 0.33
0.10 0.14 0.19 0.23 0.28 0.39 0.45 0.46 0.48 0.49 0.47 0.47 0.52 0.58 0.58 0.54 0.51 0.49 0.37 0.34 0.35 0.33 0.30 0.27 0.27 0.29 0.32 0.33 0.30 0.26 0.28 0.35 0.44 0.46 0.46 0.42 0.35 0.42 0.37 0.31 0.33 0.38 0.44
0.03 0.05 0.09 0.13 0.18 0.22 0.28 0.34 0.34 0.34 0.33 0.34 0.35 0.34 0.37 0.40 0.37 0.34 0.29 0.25 0.31 0.30 0.27 0.24 0.22 0.21 0.24 0.27 0.28 0.27 0.27 0.28 0.29 0.36 0.49 0.51 0.41 0.38 0.39 0.38 0.43 0.57 0.55
0.02 0.03 0.05 0.09 0.12 0.14 0.20 0.25 0.25 0.26 0.29 0.30 0.30 0.25 0.28 0.31 0.30 0.25 0.24 0.24 0.25 0.26 0.24 0.20 0.18 0.16 0.16 0.19 0.24 0.26 0.29 0.34 0.36 0.38 0.43 0.54 0.58 0.51 0.48 0.48 0.53 0.66 0.66
0.03 0.02 0.04 0.07 0.08 0.11 0.15 0.18 0.20 0.20 0.22 0.25 0.26 0.25 0.25 0.25 0.25 0.25 0.27 0.27 0.27 0.26 0.24 0.22 0.19 0.16 0.15 0.18 0.22 0.24 0.29 0.35 0.44 0.52 0.52 0.51 0.63 0.71 0.65 0.63 0.64 0.68 0.74
0.04 0.04 0.05 0.08 0.07 0.09 0.12 0.15 0.14 0.15 0.16 0.19 0.23 0.23 0.24 0.26 0.25 0.22 0.22 0.27 0.32 0.32 0.30 0.27 0.25 0.18 0.15 0.18 0.20 0.20 0.24 0.34 0.43 0.58 0.74 0.75 0.70 0.69 0.66 0.66 0.67 0.72 0.84
0.04 0.05 0.05 0.08 0.07 0.08 0.11 0.13 0.13 0.16 0.15 0.18 0.22 0.23 0.24 0.25 0.26 0.25 0.22 0.23 0.27 0.33 0.35 0.34 0.32 0.27 0.24 0.23 0.21 0.20 0.23 0.28 0.33 0.45 0.69 0.88 1.01 0.93 0.75 0.66 0.63 0.71 0.85
0.04 0.05 0.06 0.07 0.12 0.13 0.14 0.16 0.18 0.19 0.19 0.22 0.26 0.26 0.27 0.29 0.29 0.28 0.29 0.30 0.29 0.33 0.37 0.40 0.41 0.37 0.33 0.30 0.27 0.29 0.30 0.29 0.30 0.36 0.46 0.58 0.79 0.95 1.01 0.88 0.76 0.75 0.82
0.07 0.09 0.12 0.12 0.13 0.17 0.21 0.26 0.30 0.30 0.33 0.39 0.43 0.46 0.43 0.43 0.43 0.41 0.40 0.43 0.43 0.43 0.50 0.54 0.53 0.49 0.43 0.34 0.34 0.40 0.35 0.38 0.36 0.36 0.38 0.38 0.45 0.58 0.75 0.86 0.94 0.92 0.85
0.12 0.11 0.15 0.18 0.16 0.19 0.26 0.33 0.37 0.41 0.50 0.60 0.69 0.72 0.75 0.72 0.67 0.64 0.58 0.60 0.65 0.73 0.76 0.75 0.72 0.65 0.50 0.43 0.39 0.38 0.38 0.43 0.46 0.45 0.43 0.39 0.35 0.37 0.47 0.59 0.73 0.88 0.92
0.13 0.14 0.20 0.27 0.28 0.30 0.31 0.34 0.38 0.47 0.60 0.70 0.74 0.77 0.79 0.77 0.77 0.79 0.80 0.78 0.82 0.86 0.87 0.85 0.85 0.80 0.76 0.63 0.48 0.40 0.40 0.43 0.48 0.54 0.58 0.43 0.30 0.37 0.42 0.49 0.53 0.60 0.70
0.16 0.17 0.22 0.28 0.35 0.38 0.39 0.44 0.54 0.63 0.70 0.77 0.79 0.82 0.86 0.89 0.89 0.84 0.79 0.77 0.77 0.76 0.74 0.74 0.75 0.81 0.77 0.69 0.53 0.43 0.42 0.46 0.49 0.54 0.57 0.54 0.43 0.42 0.46 0.49 0.47 0.46 0.46
0.25 0.23 0.26 0.34 0.42 0.49 0.51 0.51 0.58 0.69 0.77 0.78 0.84 0.89 0.93 0.97 0.86 0.74 0.73 0.72 0.70 0.65 0.61 0.57 0.60 0.68 0.73 0.67 0.55 0.51 0.48 0.49 0.49 0.50 0.53 0.56 0.51 0.43 0.35 0.40 0.41 0.40 0.41
0.25 0.26 0.30 0.34 0.40 0.49 0.56 0.59 0.62 0.67 0.71 0.73 0.76 0.76 0.78 0.87 0.89 0.80 0.77 0.76 0.77 0.72 0.66 0.60 0.61 0.63 0.72 0.71 0.57 0.54 0.51 0.54 0.56 0.66 0.69 0.63 0.54 0.45 0.33 0.34 0.38 0.37 0.34
0.24 0.25 0.26 0.29 0.33 0.37 0.43 0.48 0.51 0.53 0.53 0.50 0.49 0.52 0.58 0.65 0.68 0.71 0.73 0.77 0.77 0.74 0.67 0.59 0.54 0.55 0.62 0.69 0.59 0.52 0.53 0.58 0.65 0.73 0.81 0.77 0.62 0.45 0.34 0.31 0.33 0.30 0.34
0.20 0.20 0.21 0.25 0.27 0.30 0.37 0.42 0.43 0.42 0.42 0.43 0.45 0.46 0.47 0.48 0.48 0.57 0.61 0.65 0.67 0.64 0.59 0.54 0.50 0.52 0.50 0.48 0.50 0.39 0.36 0.44 0.56 0.67 0.84 0.88 0.72 0.54 0.40 0.32 0.28 0.26 0.27
0.19 0.16 0.15 0.18 0.23 0.30 0.37 0.42 0.42 0.44 0.46 0.44 0.45 0.46 0.44 0.43 0.44 0.47 0.47 0.48 0.50 0.47 0.41 0.38 0.41 0.46 0.47 0.42 0.35 0.29 0.23 0.27 0.44 0.59 0.84 0.94 0.81 0.68 0.54 0.43 0.38 0.32 0.28
0.18 0.15 0.14 0.18 0.21 0.24 0.29 0.32 0.35 0.38 0.42 0.42 0.40 0.38 0.38 0.39 0.43 0.48 0.49 0.50 0.47 0.41 0.35 0.32 0.38 0.40 0.42 0.40 0.40 0.38 0.29 0.28 0.41 0.48 0.62 0.77 0.83 0.76 0.70 0.59 0.47 0.39 0.35
0.17 0.16 0.18 0.21 0.21 0.22 0.24 0.27 0.32 0.39 0.46 0.47 0.44 0.42 0.42 0.44 0.44 0.45 0.45 0.40 0.39 0.32 0.30 0.31 0.39 0.41 0.40 0.35 0.30 0.37 0.39 0.39 0.44 0.46 0.59 0.75 0.88 0.90 0.87 0.84 0.73 0.62 0.56
0.21 0.23 0.25 0.25 0.24 0.22 0.22 0.24 0.31 0.41 0.51 0.51 0.44 0.40 0.39 0.41 0.43 0.41 0.40 0.33 0.24 0.21 0.20 0.21 0.26 0.29 0.26 0.19 0.15 0.19 0.24 0.26 0.29 0.35 0.52 0.70 0.87 1.00 1.05 1.08 1.02 0.92 0.82